This is the latest recevied weather packets stored in our database for station/object K1RFS. If no packets are shown the sender has not sent any weather packets the latest 10 day(s).
| Time | Temp. | Humidity | Pressure | Rain* | Wind** | Luminosity | Snow |
|---|---|---|---|---|---|---|---|
| 1777847527 | 23.89° C | 14% | 997 hPa | 0 mm | - | 175 W/m² | - |
| 1777847223 | 24.44° C | 14% | 996.9 hPa | 0 mm | - | 175 W/m² | - |
| 1777846921 | 24.44° C | 14% | 996.7 hPa | 0 mm | - | 167 W/m² | - |
| 1777846620 | 23.89° C | 14% | 997 hPa | 0 mm | - | 176 W/m² | - |
| 1777846316 | 23.89° C | 14% | 997.2 hPa | 0 mm | - | 181 W/m² | - |
| 1777846013 | 23.89° C | 14% | 997.2 hPa | 0 mm | - | 188 W/m² | - |
| 1777845710 | 23.89° C | 14% | 997.3 hPa | 0 mm | - | 204 W/m² | - |
| 1777845407 | 24.44° C | 14% | 997.4 hPa | 0 mm | - | 186 W/m² | - |
| 1777845103 | 24.44° C | 14% | 997.5 hPa | 0 mm | - | 184 W/m² | - |
| 1777844802 | 24.44° C | 14% | 997.5 hPa | 0 mm | - | 423 W/m² | - |
| 1777844498 | 25.56° C | 14% | 997.5 hPa | 0 mm | - | 369 W/m² | - |
| 1777844192 | 25.56° C | 14% | 997.6 hPa | 0 mm | - | 340 W/m² | - |
| 1777843888 | 25.56° C | 13% | 997.8 hPa | 0 mm | - | 368 W/m² | - |
| 1777843585 | 25.56° C | 14% | 997.8 hPa | 0 mm | - | 390 W/m² | - |
| 1777843283 | 25.56° C | 13% | 998 hPa | 0 mm | - | 500 W/m² | - |
| 1777842980 | 26.11° C | 13% | 998.1 hPa | 0 mm | - | 518 W/m² | - |
| 1777842676 | 25.56° C | 14% | 998.1 hPa | 0 mm | - | 506 W/m² | - |
| 1777842373 | 25° C | 14% | 998.2 hPa | 0 mm | - | 512 W/m² | - |
| 1777842069 | 25° C | 14% | 998.2 hPa | 0 mm | - | 435 W/m² | - |
| 1777841765 | 25° C | 13% | 998.4 hPa | 0 mm | - | 404 W/m² | - |
| 1777841461 | 25.56° C | 13% | 998.4 hPa | 0 mm | - | 449 W/m² | - |
| 1777841158 | 25.56° C | 13% | 998.6 hPa | 0 mm | - | 497 W/m² | - |
| 1777840855 | 25.56° C | 13% | 998.8 hPa | 0 mm | - | 483 W/m² | - |
| 1777840552 | 25.56° C | 13% | 998.6 hPa | 0 mm | - | 564 W/m² | - |
| 1777840250 | 25.56° C | 14% | 998.5 hPa | 0 mm | - | 487 W/m² | - |
* Rain latest hour (hover to see other rain measurements)
** Current wind speed in m/s (hover to see current wind gust speed)